Вернуться в каталог

THORAD DELTA 1 DEB

АктивенSSO
NORAD 42597·DEBRIS·🇺🇸 United States

Запущен Nov 15, 1974 с Vandenberg Space Force Base

Loading…

Ближайшие Пролёты (ближайшие 24 часа)

TLE

СвежийSource: Space-Track

Эпоха: Sep 11, 2026, 17:35 UTC

1 42597U 74089FN  26254.73270797  .00000144  00000-0  89804-3 0  9997
2 42597 101.5574 243.5754 0189645 239.3217 118.9054 12.69708114593376

Отслеживайте THORAD DELTA 1 DEB в реальном времени с AllMySat

Download on the App Store